STARLINK-32301, 61664

Orbit data source: Space-Track

STARLINK-32301, 61664 is a payload satellite owned by SpaceX/Seattle (US) in LEO that was launched on Sat, 26 Oct 2024 UTC via an FALCON 9 launch vehicle from the Air Force Eastern Test Range (AFETR). Payload-class satellites include a variety of spacecraft equipped with specific instruments for various scientific and technological missions. These include communications satellites like Starlink; space stations such as the ISS; scientific satellites like the Hubble; Earth observation satellites from companies like Planet Labs, Umbra, and HawkEye 360; GPS; miniature CubeSats for education and research; and military/defense satellites.

Loading next visibility...
Identifier
61664, 2024-193D
Orbit
LEO
Last TLE update
21 hours ago
Origin
Manufacturer
SpaceX/Seattle
Mission
Operational Commercial Communications
Bus & Motor
STARLINK V2M, Unknown motor
Mass
730 kg wet, ~700 kg dry
Launch date (UTC)
2024-10-26 (8 months ago)
Launch vehicle
FALCON 9
Launch site
Air Force Eastern Test Range (AFETR)
Object type
Payload
Rocket body
Debris
Shape & HBR
Box + 2 Pan, 29 m
Radar Cross Section
36.964 m², Large (>1 m²)

Expand to show TLE details & history

TLE from 21 hours ago
0 STARLINK-32301
1 61664U 24193D   25182.23319096 -.00000365  00000-0 -18522-6 0  9993
2 61664  53.1595 179.2756 0001164  88.1707 271.9428 15.30191636 38024
Epoch: 2025-07-01T05:35Z
TLE epoch observation values (Epoch: 2025-07-01T05:35:47.698Z)
Latitude
0.00003°
Longitude
175.7953°
Altitude
476.113 km
Speed
7.629 km/s
True Right ascension
11h 57m 06s
True Declination
0° 00' 00"
Sunlit
Object was in daylight at epoch
Visualization orbit readout
Latitude
15.03455°
Longitude
-19.82942°
Altitude
475.156 km
Speed
7.631 km/s
Apparent Right ascension
00h 21m 32s
Apparent Declination
-12° 30' 05"
Sunlit
Object is in daylight
Visualization observer readout
Local Sidereal Time
14:21:39
Azimuth
52.394° ENE
Elevation
-51.923°
Doppler factor
1
Orbital elements
Apogee altitude
476.294 km
Perigee altitude
474.699 km
Semi-major axis
6,853.634 km
Eccentricity
0.00012
Inclination
53.1595°
RAAN
179.2756°
Arg. of periapsis
88.1707°
True anomaly
Unknown
Mean anomaly
271.9428°
Eccentric anomaly
Unknown
Mean motion
3.82527 °/min
Orbital period
94.11 mins
BSTAR
-1.8522e-7
Loading maneuver chart data...
Loading SW <> Apogee altitude chart data...
Loading historical data...
Loading historical data...
Loading historical data...
Loading historical data...
Loading historical data...
Loading historical data...
Loading historical data...

STARLINK-32301 Visibility forecast

Observer location: undefined°, undefined°

Span
Click to sort rows by Start time (UTC) header in descending order
Start Az.
Max El. time (UTC)
Max El. Az.
Max El.
End time (UTC)
End Az.
5 mins2025-07-02 03:47:32.646Z288.438° WNW2025-07-02 03:49:32.646Z331.458° NNW22.027°2025-07-02 03:52:32.646Z28.174° NE
5 mins2025-07-02 08:44:32.646Z331.666° NNW2025-07-02 08:46:32.646Z37.911° NE35.839°2025-07-02 08:49:32.646Z107.474° ESE
4 mins2025-07-02 10:22:32.646Z265.076° W2025-07-02 10:24:32.646Z221.851° SW19.003°2025-07-02 10:26:32.646Z185.936° SSW
4 mins2025-07-03 01:40:32.646Z189.208° SSW2025-07-03 01:41:32.646Z159.594° S33.557°2025-07-03 01:44:32.646Z67.481° ENE
|